| time (UTC) | temp C | wind direction | speed KPH | gust KPH | rain 1hr cm | rain 24hr cm | rain mn cm | humidity % | barometer mb |
| 20260502224557 | 13 | 222 | 1.6 | 4.8 | 0.00 | 0.00 | 0.00 | 64 | 1013.1 |
| 20260502223056 | 13 | 222 | 0.0 | 0.0 | 0.00 | 0.00 | 0.00 | 67 | 1013.1 |
| 20260502221556 | 13 | 222 | 0.0 | 0.0 | 0.00 | 0.00 | 0.00 | 68 | 1013.2 |
| 20260502220101 | 13 | 222 | 0.0 | 0.0 | 0.00 | 0.00 | 0.00 | 66 | 1013.3 |
| 20260502214551 | 14 | 222 | 0.0 | 0.0 | 0.00 | 0.00 | 0.00 | 63 | 1013.3 |
| 20260502213050 | 15 | 222 | 0.0 | 0.0 | 0.00 | 0.00 | 0.00 | 61 | 1013.5 |
| 20260502211549 | 15 | 222 | 0.0 | 0.0 | 0.00 | 0.00 | 0.00 | 60 | 1013.6 |
| 20260502210056 | 16 | 222 | 0.0 | 0.0 | 0.00 | 0.00 | 0.00 | 59 | 1013.7 |
| 20260502204545 | 16 | 222 | 0.0 | 3.2 | 0.00 | 0.00 | 0.00 | 57 | 1013.8 |
| 20260502203048 | 16 | 222 | 1.6 | 3.2 | 0.00 | 0.00 | 0.00 | 56 | 1013.9 |
| 20260502201545 | 17 | 222 | 0.0 | 0.0 | 0.00 | 0.00 | 0.00 | 56 | 1014.0 |
| 20260502200043 | 18 | 222 | 0.0 | 0.0 | 0.00 | 0.00 | 0.00 | 52 | 1014.1 |
| 20260502194542 | 18 | 222 | 0.0 | 3.2 | 0.00 | 0.00 | 0.00 | 49 | 1014.2 |
| 20260502193042 | 19 | 222 | 1.6 | 3.2 | 0.00 | 0.00 | 0.00 | 47 | 1014.2 |
| 20260502191542 | 20 | 222 | 0.0 | 0.0 | 0.00 | 0.00 | 0.00 | 45 | 1014.3 |
| 20260502190045 | 21 | 222 | 0.0 | 0.0 | 0.00 | 0.00 | 0.00 | 40 | 1014.3 |
| 20260502184549 | 22 | 222 | 0.0 | 0.0 | 0.00 | 0.00 | 0.00 | 37 | 1014.3 |
| 20260502183041 | 23 | 222 | 1.6 | 4.8 | 0.00 | 0.00 | 0.00 | 35 | 1014.2 |
| 20260502181540 | 23 | 222 | 0.0 | 4.8 | 0.00 | 0.00 | 0.00 | 33 | 1014.1 |
| 20260502163031 | 25 | 208 | 9.7 | 17.7 | 0.00 | 0.00 | 0.00 | 26 | 1014.6 |
| 20260502161529 | 26 | 194 | 12.9 | 19.3 | 0.00 | 0.00 | 0.00 | 25 | 1014.8 |
| 20260502151521 | 26 | 284 | 6.4 | 16.1 | 0.00 | 0.00 | 0.00 | 26 | 1015.6 |
| 20260502130104 | 25 | 213 | 9.7 | 24.1 | 0.00 | 0.00 | 0.00 | 26 | 1017.7 |
| 20260502123101 | 25 | 257 | 8.0 | 29.0 | 0.00 | 0.00 | 0.00 | 29 | 1018.0 |
| 20260502121603 | 25 | 229 | 9.7 | 17.7 | 0.00 | 0.00 | 0.00 | 28 | 1018.2 |
| 20260502114644 | 23 | 203 | 12.9 | 27.4 | 0.00 | 0.00 | 0.00 | 31 | 1018.8 |
| 20260502113043 | 23 | 202 | 16.1 | 29.0 | 0.00 | 0.00 | 0.00 | 31 | 1019.0 |
| 20260502111542 | 23 | 244 | 16.1 | 29.0 | 0.00 | 0.00 | 0.00 | 31 | 1019.1 |
| 20260502110042 | 23 | 204 | 9.7 | 20.9 | 0.00 | 0.00 | 0.00 | 32 | 1019.3 |
| 20260502104542 | 23 | 210 | 8.0 | 24.1 | 0.00 | 0.00 | 0.00 | 33 | 1019.4 |
| 20260502103045 | 23 | 206 | 12.9 | 25.7 | 0.00 | 0.00 | 0.00 | 33 | 1019.6 |
| 20260502101548 | 23 | 217 | 8.0 | 24.1 | 0.00 | 0.00 | 0.00 | 34 | 1019.8 |
| 20260502091521 | 22 | 209 | 9.7 | 25.7 | 0.00 | 0.00 | 0.00 | 36 | 1020.4 |
| 20260502070058 | 18 | 204 | 9.7 | 20.9 | 0.00 | 0.00 | 0.00 | 46 | 1021.3 |
| 20260502064559 | 17 | 224 | 4.8 | 12.9 | 0.00 | 0.00 | 0.00 | 50 | 1021.2 |
| 20260502063054 | 16 | 220 | 3.2 | 12.9 | 0.00 | 0.00 | 0.00 | 54 | 1021.3 |
| 20260502061546 | 15 | 199 | 6.4 | 12.9 | 0.00 | 0.00 | 0.00 | 56 | 1021.4 |
| 20260502060041 | 14 | 200 | 8.0 | 14.5 | 0.00 | 0.00 | 0.00 | 60 | 1021.4 |
| 20260502054536 | 13 | 219 | 1.6 | 8.0 | 0.00 | 0.00 | 0.00 | 65 | 1021.6 |
| 20260502053032 | 12 | 214 | 0.0 | 0.0 | 0.00 | 0.00 | 0.00 | 69 | 1021.6 |
| 20260502051528 | 11 | 214 | 0.0 | 0.0 | 0.00 | 0.00 | 0.00 | 72 | 1021.7 |
| 20260502050027 | 10 | 214 | 0.0 | 0.0 | 0.00 | 0.00 | 0.00 | 73 | 1021.6 |
| 20260502044525 | 9 | 214 | 0.0 | 0.0 | 0.00 | 0.00 | 0.00 | 78 | 1021.6 |
| 20260502043025 | 8 | 214 | 0.0 | 0.0 | 0.00 | 0.00 | 0.00 | 80 | 1021.7 |
| 20260502041534 | 7 | 214 | 0.0 | 3.2 | 0.00 | 0.00 | 0.00 | 81 | 1021.7 |
| 20260502040026 | 7 | 214 | 0.0 | 3.2 | 0.00 | 0.00 | 0.00 | 81 | 1021.7 |
| 20260502034530 | 7 | 214 | 1.6 | 3.2 | 0.00 | 0.00 | 0.00 | 81 | 1021.7 |
| 20260502033022 | 7 | 214 | 0.0 | 3.2 | 0.00 | 0.00 | 0.00 | 79 | 1021.8 |
| 20260502031521 | 7 | 214 | 1.6 | 3.2 | 0.00 | 0.00 | 0.00 | 80 | 1021.8 |
| 20260502030020 | 7 | 214 | 1.6 | 4.8 | 0.00 | 0.00 | 0.00 | 80 | 1021.9 |
| 20260502024519 | 8 | 213 | 4.8 | 6.4 | 0.00 | 0.00 | 0.00 | 80 | 1021.9 |
| 20260502023019 | 7 | 222 | 1.6 | 4.8 | 0.00 | 0.00 | 0.00 | 81 | 1022.0 |
| 20260502021517 | 7 | 222 | 1.6 | 4.8 | 0.00 | 0.00 | 0.00 | 82 | 1022.0 |
| 20260502020020 | 7 | 222 | 0.0 | 3.2 | 0.00 | 0.00 | 0.00 | 81 | 1022.1 |
| 20260502014513 | 7 | 222 | 0.0 | 0.0 | 0.00 | 0.00 | 0.00 | 80 | 1022.1 |
| 20260502013011 | 7 | 222 | 0.0 | 3.2 | 0.00 | 0.00 | 0.00 | 80 | 1022.2 |
| 20260502011528 | 7 | 222 | 0.0 | 0.0 | 0.00 | 0.00 | 0.00 | 78 | 1022.4 |
| 20260502010005 | 8 | 222 | 0.0 | 0.0 | 0.00 | 0.00 | 0.00 | 78 | 1022.5 |
| 20260502004503 | 8 | 222 | 0.0 | 0.0 | 0.00 | 0.00 | 0.00 | 77 | 1022.6 |
| 20260502003100 | 8 | 222 | 0.0 | 0.0 | 0.00 | 0.00 | 0.00 | 76 | 1022.6 |
| 20260502001557 | 9 | 222 | 0.0 | 0.0 | 0.00 | 0.00 | 0.00 | 73 | 1022.7 |
| 20260502000111 | 10 | 221 | 0.0 | 3.2 | 0.00 | 0.00 | 0.00 | 73 | 1022.7 |
| 20260501234552 | 10 | 221 | 1.6 | 4.8 | 0.00 | 0.00 | 0.00 | 74 | 1022.8 |
| 20260501233051 | 10 | 221 | 0.0 | 0.0 | 0.00 | 0.00 | 0.00 | 74 | 1023.0 |
| 20260501231557 | 10 | 221 | 0.0 | 0.0 | 0.00 | 0.00 | 0.00 | 73 | 1023.0 |
| 20260501230051 | 10 | 221 | 0.0 | 0.0 | 0.00 | 0.00 | 0.00 | 72 | 1023.0 |